Location: Lombard
(41.8800°N, 88.0080°W)
Time: 11:58:09
(UTC-05:00)

AO-109 - Visible Passes

Search period start: 17 May 2022 00:00
Search period end: 27 May 2022 00:00
Orbit: 483 x 500 km, 60.7° (Epoch: 17 May)

Date Brightness Start Highest point End Pass type
(mag) Time Alt. Az. Time Alt. Az. Time Alt. Az.
17 May ? 01:44:11 10° N 01:46:52 18° NE 01:49:32 10° E visible
17 May ? 03:20:58 10° NW 03:24:45 61° SW 03:25:32 48° S visible
18 May ? 01:20:34 10° N 01:23:06 17° NE 01:25:37 10° ENE visible
18 May ? 02:57:14 10° NW 03:00:09 48° WNW 03:00:09 48° WNW visible
19 May ? 00:56:56 10° N 00:59:18 15° NNE 01:01:19 11° ENE visible
19 May ? 02:33:28 10° NW 02:35:42 33° NW 02:35:42 33° NW visible
20 May ? 00:33:19 10° N 00:35:28 14° NNE 00:37:14 11° ENE visible
20 May ? 02:09:42 10° NW 02:11:38 28° NW 02:11:38 28° NW visible
21 May ? 00:09:41 10° N 00:11:37 13° NNE 00:13:22 10° ENE visible
21 May ? 01:45:55 10° NW 01:47:47 27° NW 01:47:47 27° NW visible
21 May ? 23:46:04 10° N 23:47:45 12° NNE 23:49:25 10° ENE visible
22 May ? 01:22:07 10° NW 01:24:05 28° NNW 01:24:05 28° NNW visible
22 May ? 23:22:28 10° N 23:23:50 12° NNE 23:25:13 10° NE visible
23 May ? 00:58:17 10° NW 01:00:27 31° NNW 01:00:27 31° NNW visible
23 May ? 22:58:56 10° NNE 22:59:55 11° NNE 23:00:53 10° NE visible
24 May ? 00:34:28 10° NNW 00:36:53 35° NNW 00:36:53 35° NNW visible
24 May ? 22:35:53 10° NNE 22:35:58 10° NNE 22:36:03 10° NNE visible
25 May ? 00:10:37 10° NNW 00:13:21 38° N 00:13:21 38° N visible
25 May ? 23:46:45 10° NNW 23:49:52 41° NNE 23:49:52 41° NNE visible
26 May ? 23:22:51 10° NNW 23:26:24 40° NE 23:26:24 40° NE visible
